[[{"header":{"parameterUnit":"m.s-1","parameterCategory":1,"la1":30.2991,"la2":30.254,"lo1":-89.0895,"lo2":-89.0444,"dy":0.0017,"dx":0.0017,"nx":28,"ny":28,"refTime":"2023-08-04T03:00:00:Z","depth":0,"parameterNumber":2,"parameterNumberName":"U-component_of_WINDS"},"data":[0,0,0,0,0,0,0,0,0,0,0,0,0,0,0,0,0,0,0,0,0,0,0,0,0,0,0,0,0,0,0,0,0,0,0,0,0,0,0,0,0,0,0,0,0,0,0,0,0,0,0,0,0,0,0,0,0,0,2.7405,2.7406,0,2.746,2.7461,2.7461,2.7425,2.7424,2.7422,2.742,2.7475,2.7478,2.7481,0,0,0,0,0,0,0,0,0,0,0,0,0,2.7267,2.727,2.7405,2.7406,2.7407,2.746,2.7461,2.7461,2.7425,2.7423,2.7421,2.742,2.7474,2.7478,2.7481,0,0,0,0,0,0,0,0,0,0,0,0,0,2.7325,2.7271,2.7405,2.7395,2.7395,2.746,2.7461,2.7461,2.7426,2.7423,2.7421,2.7419,2.7473,2.7477,2.7482,2.7559,0,0,2.7496,2.7498,0,0,0,0,0,0,0,0,2.7322,2.733,2.7396,2.7396,2.7396,2.7433,2.7432,2.7494,2.7427,2.7414,2.742,2.7417,2.7463,2.7468,2.7484,2.7562,2.7564,2.7496,2.7499,2.7501,2.7502,0,0,0,0,0,0,0,2.7318,2.7327,2.7427,2.7397,2.7397,2.7387,2.7393,2.7444,2.7452,2.7415,2.7413,2.742,2.7463,2.748,2.7485,2.7565,2.7496,2.75,2.7503,2.7504,2.7704,2.7707,0,0,0,0,0,0,2.7315,2.7324,2.7425,2.7429,2.7352,2.7392,2.7398,2.7424,2.7451,2.7453,2.7422,2.7418,2.7473,2.748,2.7487,2.7576,2.7501,2.7505,2.7507,2.7702,2.7705,2.7708,0,0,0,0,0,0,2.7312,2.7324,2.7423,2.7376,2.7388,2.7397,2.7426,2.7426,2.7443,2.7456,2.7457,2.7438,2.7472,2.748,2.7541,2.7577,2.7507,2.7511,2.7699,2.7703,2.7706,2.7757,0,0,0,0,0,0,2.7308,2.7323,2.7354,2.7377,2.739,2.7477,2.7428,2.7429,2.7451,2.7446,2.7472,2.7473,2.747,2.7534,2.7545,2.7582,2.7514,2.7695,2.7701,2.7705,2.7752,2.7762,2.7771,0,0,0,0,0,2.7303,2.7367,2.7356,2.7368,2.7429,2.7479,2.7487,2.7482,2.7454,2.7484,2.7492,2.7473,2.7572,2.754,2.7553,2.7592,2.7693,2.7699,2.7705,2.7748,2.776,2.7771,0,0,0,0,0,0,2.7348,2.7369,2.7358,2.743,2.7453,2.7473,2.7511,2.7496,2.7527,2.7522,2.7514,2.752,2.7582,2.7594,2.7558,2.7666,2.7628,2.7637,2.7656,2.7668,2.7677,2.7673,2.7518,0,0,0,0,0,2.7366,2.7407,2.7423,2.7485,2.7497,2.7502,2.7524,2.7518,2.7542,2.7551,2.7563,2.7586,2.7622,2.7646,2.768,2.7754,2.7757,2.7787,2.7796,2.7804,2.781,2.7846,2.7859,2.7727,2.7727,2.7727,0,0,2.7405,2.7421,2.7447,2.7494,2.7512,2.7551,2.751,2.7556,2.7584,2.7558,2.7614,2.7624,2.7649,2.7715,2.7745,2.7726,2.7847,2.7811,2.7817,2.782,2.7854,2.7866,2.7877,2.7731,2.773,2.773,0,0,2.7494,2.7512,2.7564,2.7582,2.7608,2.761,2.7622,2.7644,2.7649,2.7706,2.7686,2.772,2.7783,2.7801,2.7818,2.7911,2.7893,2.7922,2.7971,2.8006,2.8016,2.8025,2.8055,2.8067,2.793,2.793,2.793,0,2.7538,2.7598,2.7593,2.7638,2.7658,2.7636,2.7687,2.7704,2.774,2.7754,2.7733,2.7809,2.7825,2.7892,2.7915,2.7931,2.7943,2.7919,2.8015,2.8024,2.8033,2.8061,2.8073,2.7933,2.7933,2.7932,2.7932,0,2.7649,2.7691,2.773,2.7764,2.7789,2.7837,2.7837,2.7863,2.7855,2.7859,2.7915,2.7933,2.7968,2.7984,2.7978,2.8051,2.8038,2.8016,2.7977,2.8048,2.8075,2.8086,2.7937,2.7936,2.7935,2.7935,0,0,2.7769,2.7798,2.7812,2.7825,2.7851,2.7883,2.7929,2.7964,2.7984,2.8009,2.8046,2.8099,2.8078,2.8097,2.8092,2.8123,2.8192,2.8097,2.8098,2.8112,2.827,2.8284,2.8297,2.8181,2.8183,2.8185,2.8266,0,2.7857,2.7938,2.7933,2.8008,2.8045,2.8023,2.8062,2.8082,2.8086,2.8117,2.8122,2.8158,2.813,2.8141,2.8171,2.8177,2.8223,2.8172,2.8213,2.8214,2.8205,2.8311,2.8327,2.8403,2.8277,2.8279,2.828,0,2.7972,2.7999,2.8078,2.8095,2.811,2.8146,2.8175,2.8206,2.8226,2.8227,2.8248,2.8236,2.8281,2.8242,2.8302,2.8267,2.8284,2.8289,2.8292,2.8294,2.825,2.8313,2.8428,2.8439,2.8297,2.8296,2.8295,0,2.8047,2.8104,2.8157,2.817,2.8192,2.8217,2.8228,2.8246,2.8266,2.8292,2.8304,2.8335,2.8351,2.8375,2.8371,2.8344,2.8431,2.8393,2.8431,2.8431,2.8449,2.8447,2.8565,2.8464,2.8464,2.8464,2.8463,0,2.8145,2.8193,2.8191,2.8223,2.8276,2.8269,2.832,2.8328,2.8344,2.8376,2.836,2.839,2.8385,2.8415,2.8413,2.846,2.8469,2.8469,2.8468,2.8469,2.8469,2.8479,2.8472,2.8467,2.8466,2.8465,2.8465,0,2.8237,2.8238,2.8294,2.831,2.8315,2.8352,2.8365,2.8395,2.8398,2.8439,2.8448,2.8452,2.8486,2.8485,2.8525,2.8523,2.8581,2.8575,2.8574,2.8571,2.8608,2.8604,2.8735,2.875,2.8641,2.8642,2.8643,0,2.8298,2.8334,2.8353,2.8374,2.8385,2.8419,2.8438,2.8433,2.8453,2.8478,2.8504,2.8537,2.8562,2.8618,2.8623,2.8653,2.8645,2.8689,2.8649,2.8649,2.8642,2.8639,2.8641,2.8696,2.8697,2.8698,2.8699,0,2.8406,2.8404,2.8433,2.8461,2.8485,2.8507,2.8528,2.8545,2.8541,2.8566,2.86,2.862,2.8659,2.869,2.8718,2.8727,2.8712,2.8712,2.8721,2.8722,2.8719,2.8718,2.8592,2.8708,2.8707,2.8707,2.8706,2.8706,2.8482,2.8512,2.8529,2.8561,2.8576,2.8594,2.8622,2.8627,2.8656,2.8687,2.8682,2.8719,2.8736,2.8771,2.8783,2.8812,2.8796,2.8811,2.8814,2.8818,2.882,2.8716,2.8817,2.8817,2.8817,2.8817,2.8816,0,2.8586,2.8595,2.8625,2.8653,2.8678,2.8661,2.8682,2.8704,2.8737,2.8754,2.8779,2.8817,2.8847,2.8854,2.8883,2.8904,2.8897,2.8911,2.8908,2.891,2.8834,2.8821,2.8916,2.8916,2.8916,2.8916,2.8916,2.8916,2.8643,2.8691,2.869,2.8745,2.8754,2.879,2.8803,2.8819,2.8832,2.8875,2.89,2.8904,2.8917,2.8945,2.8971,2.8973,2.8983,2.8999,2.8997,2.8926,2.8916,2.8906,2.8894,2.9002,2.9002,2.907,2.9071,2.9071]},{"header":{"parameterUnit":"m.s-1","parameterCategory":1,"la1":30.2991,"la2":30.254,"lo1":-89.0895,"lo2":-89.0444,"dy":0.0017,"dx":0.0017,"nx":28,"ny":28,"refTime":"2023-08-04T03:00:00:Z","depth":0,"parameterNumber":3,"parameterNumberName":"V-component_of_WINDS"},"data":[0,0,0,0,0,0,0,0,0,0,0,0,0,0,0,0,0,0,0,0,0,0,0,0,0,0,0,0,0,0,0,0,0,0,0,0,0,0,0,0,0,0,0,0,0,0,0,0,0,0,0,0,0,0,0,0,0,0,3.8163,3.8163,0,3.8221,3.8221,3.8222,3.8185,3.8183,3.8182,3.818,3.8234,3.8237,3.824,0,0,0,0,0,0,0,0,0,0,0,0,0,3.8014,3.8017,3.8163,3.8163,3.8164,3.822,3.8221,3.8222,3.8185,3.8183,3.8181,3.8179,3.8233,3.8237,3.8241,0,0,0,0,0,0,0,0,0,0,0,0,0,3.8076,3.8018,3.8163,3.8153,3.8153,3.822,3.8221,3.8222,3.8186,3.8183,3.8181,3.8178,3.8232,3.8237,3.8241,3.832,0,0,3.8255,3.8257,0,0,0,0,0,0,0,0,3.8073,3.8081,3.8153,3.8154,3.8153,3.8193,3.8189,3.8255,3.8186,3.8173,3.818,3.8177,3.8222,3.8228,3.8244,3.8323,3.8325,3.8255,3.8258,3.826,3.8261,0,0,0,0,0,0,0,3.8068,3.8079,3.8185,3.8155,3.8155,3.8143,3.8149,3.8201,3.8211,3.8174,3.8172,3.8179,3.8222,3.824,3.8245,3.8326,3.8255,3.8259,3.8262,3.8264,3.847,3.8472,0,0,0,0,0,0,3.8066,3.8075,3.8184,3.8187,3.8106,3.8148,3.8155,3.8183,3.8211,3.8212,3.8181,3.8177,3.8233,3.824,3.8247,3.8339,3.826,3.8264,3.8267,3.8467,3.847,3.8473,0,0,0,0,0,0,3.8063,3.8076,3.8181,3.8131,3.8143,3.8154,3.8185,3.8185,3.8203,3.8216,3.8217,3.8198,3.8231,3.824,3.8302,3.8341,3.8266,3.8271,3.8464,3.8468,3.8472,3.8526,0,0,0,0,0,0,3.8058,3.8075,3.8107,3.8132,3.8146,3.8238,3.8188,3.8188,3.8212,3.8207,3.8232,3.8234,3.823,3.8295,3.8306,3.8345,3.8274,3.846,3.8466,3.847,3.8521,3.8532,3.8541,0,0,0,0,0,3.8053,3.8119,3.8108,3.8122,3.8186,3.824,3.8248,3.8244,3.8215,3.8246,3.8254,3.8233,3.8335,3.8302,3.8314,3.8355,3.8458,3.8464,3.847,3.8516,3.853,3.8541,0,0,0,0,0,0,3.8097,3.8122,3.8111,3.8187,3.8212,3.8234,3.8272,3.8258,3.829,3.8284,3.8276,3.8282,3.8346,3.8357,3.832,3.8432,3.8391,3.84,3.8423,3.8435,3.8445,3.844,3.8278,0,0,0,0,0,3.8115,3.8159,3.8178,3.8243,3.8256,3.8262,3.8286,3.828,3.8305,3.8315,3.8327,3.8351,3.8387,3.8412,3.8447,3.8523,3.8526,3.8557,3.8566,3.8575,3.8582,3.862,3.8633,3.8493,3.8493,3.8493,0,0,3.8154,3.8173,3.8201,3.8252,3.8271,3.8314,3.8271,3.8319,3.835,3.8321,3.838,3.839,3.8415,3.8484,3.8515,3.8495,3.8621,3.8582,3.8589,3.8592,3.8628,3.8641,3.8653,3.8498,3.8497,3.8496,0,0,3.8246,3.8266,3.8321,3.8341,3.837,3.8373,3.8387,3.8411,3.8417,3.8476,3.8455,3.8491,3.8556,3.8574,3.8591,3.8689,3.867,3.87,3.8751,3.8789,3.88,3.8809,3.8842,3.8854,3.8708,3.8708,3.8708,0,3.8289,3.8355,3.8351,3.84,3.8422,3.84,3.8454,3.8473,3.8511,3.8526,3.8504,3.8583,3.8599,3.867,3.8694,3.871,3.8722,3.8697,3.8799,3.8809,3.8817,3.8848,3.8861,3.8711,3.8711,3.871,3.871,0,3.8406,3.8452,3.8493,3.8531,3.8558,3.861,3.8612,3.8639,3.8631,3.8636,3.8695,3.8713,3.875,3.8767,3.876,3.8837,3.8823,3.88,3.8759,3.8834,3.8863,3.8875,3.8716,3.8715,3.8714,3.8713,0,0,3.8527,3.8562,3.8577,3.8594,3.8624,3.8657,3.8707,3.8745,3.8767,3.8794,3.8833,3.8888,3.8867,3.8887,3.8881,3.8914,3.8987,3.8886,3.8887,3.8903,3.9071,3.9087,3.9101,3.8975,3.8978,3.898,3.9068,0,3.8618,3.8707,3.8704,3.8785,3.8825,3.8804,3.8847,3.8868,3.8874,3.8908,3.8913,3.8952,3.8921,3.8933,3.8965,3.8972,3.902,3.8965,3.901,3.9011,3.9003,3.9116,3.9133,3.9216,3.9079,3.9081,3.9083,0,3.8738,3.877,3.8855,3.8877,3.8894,3.8933,3.8966,3.8999,3.9022,3.9024,3.9046,3.9035,3.9082,3.9041,3.9105,3.9067,3.9085,3.9091,3.9094,3.9097,3.905,3.912,3.9242,3.9254,3.9101,3.9099,3.9098,0,3.8815,3.8879,3.8938,3.8952,3.8981,3.9008,3.902,3.9041,3.9063,3.9092,3.9106,3.9139,3.9157,3.9182,3.9179,3.915,3.9243,3.9202,3.9244,3.9244,3.9263,3.9262,3.9389,3.9278,3.9278,3.9277,3.9277,0,3.8917,3.8969,3.8972,3.9008,3.9066,3.9061,3.9117,3.9127,3.9145,3.9181,3.9165,3.9198,3.9193,3.9226,3.9223,3.9275,3.9284,3.9285,3.9283,3.9285,3.9285,3.9296,3.9289,3.9281,3.928,3.9279,3.9279,0,3.9012,3.9016,3.9079,3.91,3.9107,3.9148,3.9165,3.9198,3.9202,3.9247,3.9257,3.9264,3.9301,3.9301,3.9344,3.9342,3.9405,3.9398,3.9398,3.9396,3.9437,3.9432,3.9573,3.9591,3.9471,3.9472,3.9473,0,3.9076,3.9116,3.9141,3.9165,3.9179,3.9218,3.924,3.9237,3.926,3.9289,3.9318,3.9355,3.9383,3.9444,3.9451,3.9483,3.9475,3.9523,3.948,3.948,3.9474,3.9471,3.9474,3.9531,3.9532,3.9533,3.9534,0,3.9188,3.9188,3.9222,3.9257,3.9285,3.9312,3.9336,3.9356,3.9355,3.9382,3.9421,3.9444,3.9488,3.9523,3.9554,3.9564,3.9548,3.9548,3.9558,3.956,3.9558,3.9558,3.9419,3.9544,3.9543,3.9542,3.9542,3.9541,3.9268,3.9302,3.9325,3.9363,3.9381,3.9405,3.9436,3.9445,3.9478,3.9514,3.9509,3.9552,3.9572,3.9612,3.9625,3.9657,3.964,3.9657,3.9661,3.9664,3.9668,3.9554,3.9663,3.9663,3.9663,3.9662,3.9662,0,3.9378,3.9392,3.9427,3.9462,3.9491,3.9476,3.9502,3.9527,3.9565,3.9586,3.9615,3.9658,3.9693,3.9702,3.9735,3.9758,3.9751,3.9767,3.9764,3.9766,3.9682,3.9669,3.9771,3.9771,3.9771,3.9771,3.9771,3.9771,3.9438,3.9494,3.9496,3.956,3.9573,3.9616,3.9632,3.9652,3.9669,3.9719,3.9747,3.9754,3.9769,3.9803,3.9832,3.9834,3.9846,3.9864,3.9862,3.9783,3.9772,3.9762,3.9749,3.9867,3.9867,3.9943,3.9944,3.9944]}]]